N0JVW-13 Weather Reports


time (UTC)temp
C
wind
direction
speed
KPH
gust
KPH
rain 1hr
cm
rain 24hr
cm
rain mn
cm
humidity
%
barometer
mb
20260903105530 24 151 0.0 0.0 0.00 0.00 0.00 70 1011.1
20260903105010 24 152 0.0 0.0 0.00 0.00 0.00 70 1011.1
20260903104554 24 136 0.0 0.0 0.00 0.00 0.00 70 1011.0
20260903104035 24 136 0.0 0.0 0.00 0.00 0.00 71 1011.0
20260903103513 24 136 0.0 0.0 0.00 0.00 0.00 71 1010.8
20260903103057 24 136 0.0 0.0 0.00 0.00 0.00 71 1010.8
20260903102537 24 136 0.0 0.0 0.00 0.00 0.00 71 1010.8
20260903102020 24 123 0.0 0.0 0.00 0.00 0.00 71 1010.7
20260903101602 25 123 0.0 0.0 0.00 0.00 0.00 71 1010.7
20260903101037 25 141 0.0 0.0 0.00 0.00 0.00 71 1010.7
20260903100518 25 136 0.0 0.0 0.00 0.00 0.00 71 1010.7
20260903095539 25 155 0.0 0.0 0.00 0.00 0.00 72 1010.7
20260903095019 25 147 0.0 0.0 0.00 0.00 0.00 72 1010.7
20260903094652 25 143 0.0 0.0 0.00 0.00 0.00 72 1010.7
20260903094042 25 135 0.0 0.0 0.00 0.00 0.00 72 1010.8
20260903093522 25 134 0.0 0.0 0.00 0.00 0.00 72 1010.8
20260903093001 25 134 0.0 0.0 0.00 0.00 0.00 72 1010.7
20260903092547 25 134 0.0 0.0 0.00 0.00 0.00 72 1010.7
20260903092025 25 131 0.0 0.0 0.00 0.00 0.00 72 1010.7
20260903091505 25 134 0.0 0.0 0.00 0.00 0.00 72 1010.7
20260903091047 25 134 0.0 0.0 0.00 0.00 0.00 72 1010.7
20260903090531 25 134 0.0 0.0 0.00 0.00 0.00 72 1010.7
20260903090007 25 134 0.0 0.0 0.00 0.00 0.00 72 1010.8
20260903085549 25 134 0.0 0.0 0.00 0.00 0.00 72 1010.7
20260903085029 25 134 0.0 0.0 0.00 0.00 0.00 72 1010.7
20260903084523 25 134 0.0 0.0 0.00 0.00 0.00 71 1010.6
20260903084052 25 134 0.0 0.0 0.00 0.00 0.00 71 1010.6
20260903083532 25 134 0.0 0.0 0.00 0.00 0.00 71 1010.7
20260903083019 25 134 0.0 0.0 0.00 0.00 0.00 71 1010.7
20260903082554 25 134 0.0 0.0 0.00 0.00 0.00 71 1010.6
20260903082034 25 134 0.0 0.0 0.00 0.00 0.00 71 1010.6
20260903081514 25 134 0.0 0.0 0.00 0.00 0.00 71 1010.6
20260903081057 25 134 0.0 0.0 0.00 0.00 0.00 71 1010.5
20260903080537 25 134 0.0 0.0 0.00 0.00 0.00 70 1010.6
20260903080035 26 148 0.0 0.0 0.00 0.00 0.00 70 1010.6
20260903075602 26 148 0.0 0.0 0.00 0.00 0.00 70 1010.5
20260903075039 26 148 0.0 0.0 0.00 0.00 0.00 69 1010.5
20260903074519 26 148 0.0 0.0 0.00 0.00 0.00 69 1010.5
20260903074106 26 148 0.0 0.0 0.00 0.00 0.00 68 1010.5
20260903073545 26 148 0.0 0.0 0.00 0.00 0.00 68 1010.5
20260903073024 26 153 0.0 0.0 0.00 0.00 0.00 68 1010.5
20260903072501 26 153 0.0 0.0 0.00 0.00 0.00 67 1010.5
20260903072046 26 153 0.0 0.0 0.00 0.00 0.00 67 1010.5
20260903071525 26 153 0.0 0.0 0.00 0.00 0.00 67 1010.5
20260903071007 26 153 0.0 0.0 0.00 0.00 0.00 67 1010.6
20260903070550 26 153 0.0 0.0 0.00 0.00 0.00 66 1010.5
20260903070026 27 153 0.0 0.0 0.00 0.00 0.00 66 1010.6
20260903065506 27 153 0.0 0.0 0.00 0.00 0.00 65 1010.7
20260903065049 27 153 0.0 0.0 0.00 0.00 0.00 65 1010.6
20260903064529 27 153 0.0 0.0 0.00 0.00 0.00 65 1010.6
20260903064008 27 153 0.0 0.0 0.00 0.00 0.00 65 1010.5
20260903063551 27 153 0.0 0.0 0.00 0.00 0.00 65 1010.5
20260903063031 27 153 0.0 0.0 0.00 0.00 0.00 64 1010.5
20260903062511 27 153 0.0 0.0 0.00 0.00 0.00 64 1010.6
20260903062055 27 153 0.0 0.0 0.00 0.00 0.00 64 1010.5
20260903061533 27 153 0.0 0.0 0.00 0.00 0.00 64 1010.5
20260903061016 27 153 0.0 0.0 0.00 0.00 0.00 64 1010.5
20260903060556 27 153 0.0 0.0 0.00 0.00 0.00 64 1010.5
20260903060037 27 153 0.0 0.0 0.00 0.00 0.00 64 1010.5
20260903055517 27 153 0.0 0.0 0.00 0.00 0.00 64 1010.5
20260903055056 27 153 0.0 0.0 0.00 0.00 0.00 64 1010.5
20260903054536 27 153 0.0 0.0 0.00 0.00 0.00 64 1010.5
20260903054015 27 153 0.0 0.0 0.00 0.00 0.00 64 1010.5
20260903053602 27 153 0.0 0.0 0.00 0.00 0.00 64 1010.5
20260903053040 27 153 0.0 0.0 0.00 0.00 0.00 63 1010.5
20260903052518 27 153 0.0 0.0 0.00 0.00 0.00 63 1010.5
20260903052101 27 153 0.0 0.0 0.00 0.00 0.00 63 1010.5
20260903051546 27 153 0.0 0.0 0.00 0.00 0.00 63 1010.5
20260903051020 27 153 0.0 0.0 0.00 0.00 0.00 63 1010.5
20260903050603 27 153 0.0 0.0 0.00 0.00 0.00 63 1010.5
20260903050043 27 153 0.0 0.0 0.00 0.00 0.00 63 1010.5
20260903045524 28 153 0.0 0.0 0.00 0.00 0.00 63 1010.5
20260903045003 28 153 0.0 0.0 0.00 0.00 0.00 62 1010.5
20260903044547 28 153 0.0 0.0 0.00 0.00 0.00 62 1010.4
20260903044026 28 153 0.0 0.0 0.00 0.00 0.00 62 1010.5
20260903043506 28 153 0.0 0.0 0.00 0.00 0.00 62 1010.5
20260903043048 28 153 0.0 0.0 0.00 0.00 0.00 62 1010.5
20260903042533 28 153 0.0 0.0 0.00 0.00 0.00 62 1010.5
20260903042009 28 153 0.0 0.0 0.00 0.00 0.00 62 1010.4
20260903041607 28 153 0.0 0.0 0.00 0.00 0.00 61 1010.5
20260903041033 28 153 0.0 0.0 0.00 0.00 0.00 61 1010.5
20260903040510 28 153 0.0 0.0 0.00 0.00 0.00 61 1010.6
20260903040108 28 153 0.0 0.0 0.00 0.00 0.00 61 1010.7
20260903035537 28 153 0.0 0.0 0.00 0.00 0.00 61 1010.6
20260903035012 28 153 0.0 0.0 0.00 0.00 0.00 60 1010.6
20260903034559 28 153 0.0 0.0 0.00 0.00 0.00 60 1010.6
20260903034036 28 153 0.0 0.0 0.00 0.00 0.00 60 1010.6
20260903033514 28 153 0.0 0.0 0.00 0.00 0.00 60 1010.6
20260903033058 28 153 0.0 0.0 0.00 0.00 0.00 60 1010.6
20260903032537 28 153 0.0 0.0 0.00 0.00 0.00 59 1010.6
20260903032017 29 153 0.0 0.0 0.00 0.00 0.00 59 1010.6
20260903031602 29 153 0.0 0.0 0.00 0.00 0.00 59 1010.5
20260903031043 29 153 0.0 0.0 0.00 0.00 0.00 59 1010.5
20260903030520 29 153 0.0 0.0 0.00 0.00 0.00 59 1010.6
20260903030106 29 153 0.0 0.0 0.00 0.00 0.00 59 1010.6
20260903025543 29 153 0.0 0.0 0.00 0.00 0.00 59 1010.6
20260903025021 29 153 0.0 0.0 0.00 0.00 0.00 58 1010.5
20260903024502 29 153 0.0 0.0 0.00 0.00 0.00 58 1010.6
20260903024044 29 153 0.0 0.0 0.00 0.00 0.00 58 1010.5
20260903023524 29 153 0.0 0.0 0.00 0.00 0.00 57 1010.4
20260903023006 29 153 0.0 0.0 0.00 0.00 0.00 57 1010.5
20260903022550 30 153 0.0 0.0 0.00 0.00 0.00 58 1010.5
20260903022026 30 153 0.0 0.0 0.00 0.00 0.00 57 1010.4
20260903021507 30 153 0.0 0.0 0.00 0.00 0.00 57 1010.3
20260903021051 30 153 0.0 0.0 0.00 0.00 0.00 57 1010.3
20260903020530 30 153 0.0 0.0 0.00 0.00 0.00 56 1010.3
20260903020010 30 153 0.0 0.0 0.00 0.00 0.00 56 1010.2
20260903015555 30 153 0.0 0.0 0.00 0.00 0.00 56 1010.1
20260903015034 30 153 0.0 0.0 0.00 0.00 0.00 56 1010.0
20260903014512 30 153 0.0 0.0 0.00 0.00 0.00 56 1009.9
20260903014056 30 153 0.0 0.0 0.00 0.00 0.00 56 1009.8
20260903013536 30 153 0.0 0.0 0.00 0.00 0.00 57 1009.8
20260903013015 30 153 0.0 0.0 0.00 0.00 0.00 56 1009.8
20260903012559 30 153 0.0 0.0 0.00 0.00 0.00 56 1009.7
20260903012038 31 153 0.0 0.0 0.00 0.00 0.00 56 1009.7
20260903011518 31 153 0.0 0.0 0.00 0.00 0.00 55 1009.6
20260903011103 31 153 0.0 0.0 0.00 0.00 0.00 55 1009.6
20260903010540 31 153 0.0 0.0 0.00 0.00 0.00 54 1009.6
20260903010019 31 153 0.0 0.0 0.00 0.00 0.00 53 1009.6
20260903005605 32 153 0.0 0.0 0.00 0.00 0.00 53 1009.6
20260903005045 32 153 0.0 0.0 0.00 0.00 0.00 53 1009.5
20260903004521 32 153 0.0 0.0 0.00 0.00 0.00 52 1009.6
20260903004005 32 153 0.0 0.0 0.00 0.00 0.00 52 1009.5
20260903003544 32 153 0.0 0.0 0.00 0.00 0.00 52 1009.5
20260903003026 32 153 0.0 0.0 0.00 0.00 0.00 51 1009.5
20260903002502 32 153 0.0 0.0 0.00 0.00 0.00 51 1009.6
20260903002045 32 153 0.0 0.0 0.00 0.00 0.00 50 1009.6
20260903001540 33 153 0.0 0.0 0.00 0.00 0.00 50 1009.6
20260903001004 33 153 0.0 0.0 0.00 0.00 0.00 50 1009.7
20260903000547 33 153 0.0 0.0 0.00 0.00 0.00 49 1009.6
20260903000027 33 153 0.0 0.0 0.00 0.00 0.00 49 1009.6
20260902235507 33 153 0.0 1.6 0.00 0.00 0.00 49 1009.6
20260902235049 33 156 0.0 1.6 0.00 0.00 0.00 49 1009.7
20260902234532 33 120 0.0 1.6 0.00 0.00 0.00 48 1009.6
20260902234009 33 154 0.0 1.6 0.00 0.00 0.00 48 1009.7
20260902233554 33 154 0.0 0.0 0.00 0.00 0.00 48 1009.7
20260902233029 33 154 0.0 0.0 0.00 0.00 0.00 47 1009.7
20260902232508 34 154 0.0 0.0 0.00 0.00 0.00 47 1009.7
20260902232052 34 154 0.0 1.6 0.00 0.00 0.00 47 1009.7
20260902231532 34 154 0.0 1.6 0.00 0.00 0.00 46 1009.7
20260902231011 34 131 0.0 3.2 0.00 0.00 0.00 45 1009.7
20260902230558 34 131 0.0 3.2 0.00 0.00 0.00 45 1009.7
20260902230035 34 110 0.0 4.8 0.00 0.00 0.00 45 1009.7
20260902225514 34 143 0.0 4.8 0.00 0.00 0.00 45 1009.8
20260902225058 34 163 0.0 0.0 0.00 0.00 0.00 45 1009.8
20260902224545 34 153 0.0 3.2 0.00 0.00 0.00 46 1009.8
20260902224017 34 127 0.0 3.2 0.00 0.00 0.00 46 1009.7
20260902223601 34 176 0.0 3.2 0.00 0.00 0.00 44 1009.8
20260902223040 35 148 0.0 4.8 0.00 0.00 0.00 44 1009.8
20260902222521 35 160 1.6 4.8 0.00 0.00 0.00 44 1009.8
20260902222101 35 150 0.0 4.8 0.00 0.00 0.00 45 1009.7
20260902221547 35 166 0.0 6.4 0.00 0.00 0.00 44 1009.7
20260902221020 35 158 0.0 1.6 0.00 0.00 0.00 45 1009.7
20260902220604 35 97 0.0 1.6 0.00 0.00 0.00 44 1009.7
20260902220052 35 97 0.0 3.2 0.00 0.00 0.00 44 1009.8
20260902215524 35 167 0.0 3.2 0.00 0.00 0.00 44 1009.9
20260902215003 35 160 0.0 4.8 0.00 0.00 0.00 43 1009.9
20260902214545 35 114 0.0 6.4 0.00 0.00 0.00 42 1009.9
20260902214025 35 170 1.6 6.4 0.00 0.00 0.00 43 1009.9
20260902213504 35 130 1.6 6.4 0.00 0.00 0.00 42 1010.0
20260902213050 35 160 1.6 6.4 0.00 0.00 0.00 43 1010.0
20260902212527 35 119 0.0 4.8 0.00 0.00 0.00 44 1010.0
20260902212005 35 133 0.0 4.8 0.00 0.00 0.00 42 1010.2
20260902211550 35 134 0.0 4.8 0.00 0.00 0.00 43 1010.3
20260902211029 35 133 0.0 8.0 0.00 0.00 0.00 43 1010.3
20260902210508 35 160 0.0 8.0 0.00 0.00 0.00 44 1010.4
20260902210107 35 165 1.6 4.8 0.00 0.00 0.00 44 1010.3
20260902205531 35 143 0.0 3.2 0.00 0.00 0.00 45 1010.5
20260902205011 35 198 0.0 1.6 0.00 0.00 0.00 46 1010.6
20260902204553 35 163 0.0 1.6 0.00 0.00 0.00 45 1010.7
20260902204033 35 162 0.0 6.4 0.00 0.00 0.00 44 1010.7
20260902203512 35 165 0.0 6.4 0.00 0.00 0.00 44 1010.8
20260902203100 35 127 0.0 4.8 0.00 0.00 0.00 44 1010.8
20260902202536 35 138 0.0 8.0 0.00 0.00 0.00 44 1010.8
20260902202017 35 169 3.2 8.0 0.00 0.00 0.00 45 1010.8
20260902201605 35 150 0.0 4.8 0.00 0.00 0.00 45 1010.8
20260902201041 35 150 0.0 3.2 0.00 0.00 0.00 44 1010.9
20260902200520 35 139 0.0 3.2 0.00 0.00 0.00 43 1010.9
20260902200111 35 139 0.0 6.4 0.00 0.00 0.00 42 1010.9
20260902195541 36 152 1.6 8.0 0.00 0.00 0.00 42 1011.1
20260902195019 36 152 0.0 8.0 0.00 0.00 0.00 43 1011.1
20260902194603 36 124 0.0 3.2 0.00 0.00 0.00 44 1011.1
20260902194045 36 117 0.0 4.8 0.00 0.00 0.00 44 1011.3
20260902193522 36 118 0.0 4.8 0.00 0.00 0.00 44 1011.2
20260902193002 36 134 0.0 8.0 0.00 0.00 0.00 44 1011.4
20260902192545 35 205 3.2 8.0 0.00 0.00 0.00 44 1011.4
20260902192024 35 163 0.0 6.4 0.00 0.00 0.00 44 1011.5
20260902191504 35 156 0.0 6.4 0.00 0.00 0.00 44 1011.6
20260902191048 35 135 1.6 6.4 0.00 0.00 0.00 44 1011.6
20260902190528 35 124 0.0 6.4 0.00 0.00 0.00 46 1011.8
20260902190009 35 160 1.6 4.8 0.00 0.00 0.00 46 1011.8
20260902185549 35 161 0.0 6.4 0.00 0.00 0.00 46 1011.8
20260902185033 35 148 0.0 6.4 0.00 0.00 0.00 46 1011.9
20260902184510 35 150 3.2 6.4 0.00 0.00 0.00 46 1011.9
20260902184052 35 134 1.6 6.4 0.00 0.00 0.00 46 1012.0
20260902183532 35 229 0.0 4.8 0.00 0.00 0.00 48 1012.2
20260902183013 35 172 0.0 4.8 0.00 0.00 0.00 48 1012.3
20260902182554 35 214 0.0 4.8 0.00 0.00 0.00 46 1012.3
20260902182037 35 161 0.0 4.8 0.00 0.00 0.00 49 1012.4
20260902181513 35 101 0.0 1.6 0.00 0.00 0.00 49 1012.3
20260902181057 34 101 0.0 1.6 0.00 0.00 0.00 51 1012.3
20260902180537 34 101 0.0 3.2 0.00 0.00 0.00 50 1012.5
20260902180025 34 101 0.0 4.8 0.00 0.00 0.00 49 1012.5
20260902175602 33 101 0.0 4.8 0.00 0.00 0.00 50 1012.6
20260902175040 33 207 0.0 3.2 0.00 0.00 0.00 50 1012.8
20260902174520 33 215 0.0 1.6 0.00 0.00 0.00 50 1012.7
20260902174103 33 215 0.0 1.6 0.00 0.00 0.00 51 1012.8
20260902173543 33 215 0.0 1.6 0.00 0.00 0.00 51 1012.9
20260902173032 33 215 0.0 1.6 0.00 0.00 0.00 52 1012.9
20260902172504 33 215 0.0 1.6 0.00 0.00 0.00 52 1013.0
20260902172045 33 164 0.0 1.6 0.00 0.00 0.00 53 1013.1
20260902171521 33 193 0.0 4.8 0.00 0.00 0.00 53 1013.2
20260902171104 33 193 0.0 4.8 0.00 0.00 0.00 54 1013.2
20260902170545 33 134 0.0 4.8 0.00 0.00 0.00 55 1013.2
20260902170023 32 160 0.0 1.6 0.00 0.00 0.00 55 1013.3
20260902165504 32 148 0.0 8.0 0.00 0.00 0.00 55 1013.4
20260902165049 32 141 1.6 8.0 0.00 0.00 0.00 55 1013.4
20260902164529 32 115 0.0 4.8 0.00 0.00 0.00 56 1013.3
20260902164006 32 178 0.0 4.8 0.00 0.00 0.00 57 1013.5
20260902163552 32 207 0.0 4.8 0.00 0.00 0.00 58 1013.4
20260902163031 32 280 0.0 1.6 0.00 0.00 0.00 56 1013.5
20260902162509 32 281 0.0 4.8 0.00 0.00 0.00 58 1013.5
20260902162054 32 280 0.0 4.8 0.00 0.00 0.00 57 1013.5
20260902161537 31 280 0.0 3.2 0.00 0.00 0.00 55 1013.4
20260902161012 31 279 0.0 3.2 0.00 0.00 0.00 57 1013.5
20260902160555 31 279 0.0 3.2 0.00 0.00 0.00 57 1013.4
20260902160041 31 291 0.0 4.8 0.00 0.00 0.00 57 1013.5
20260902155515 31 291 0.0 3.2 0.00 0.00 0.00 58 1013.5
20260902155058 31 291 0.0 4.8 0.00 0.00 0.00 58 1013.5
20260902154538 31 291 0.0 4.8 0.00 0.00 0.00 58 1013.5
20260902154022 31 235 0.0 4.8 0.00 0.00 0.00 59 1013.4
20260902153600 31 161 0.0 4.8 0.00 0.00 0.00 59 1013.4
20260902153040 30 126 0.0 3.2 0.00 0.00 0.00 62 1013.4
20260902152520 30 306 0.0 3.2 0.00 0.00 0.00 62 1013.4
20260902152103 30 306 0.0 3.2 0.00 0.00 0.00 61 1013.4
20260902151542 30 92 0.0 1.6 0.00 0.00 0.00 62 1013.4
20260902151021 30 92 0.0 4.8 0.00 0.00 0.00 64 1013.4
20260902150501 29 256 0.0 1.6 0.00 0.00 0.00 64 1013.4
20260902150045 29 256 0.0 1.6 0.00 0.00 0.00 64 1013.4
20260902145524 29 278 0.0 3.2 0.00 0.00 0.00 64 1013.4
20260902145006 28 278 0.0 3.2 0.00 0.00 0.00 65 1013.5
20260902144547 28 158 0.0 1.6 0.00 0.00 0.00 66 1013.4
20260902144028 28 127 0.0 1.6 0.00 0.00 0.00 68 1013.5
20260902143506 28 212 0.0 1.6 0.00 0.00 0.00 67 1013.4
20260902143050 28 250 0.0 1.6 0.00 0.00 0.00 68 1013.5
20260902142530 27 110 0.0 1.6 0.00 0.00 0.00 70 1013.6
20260902142009 27 115 0.0 3.2 0.00 0.00 0.00 70 1013.6
20260902141600 27 115 0.0 3.2 0.00 0.00 0.00 70 1013.6
20260902141033 27 122 0.0 1.6 0.00 0.00 0.00 70 1013.6
20260902140511 26 120 0.0 1.6 0.00 0.00 0.00 71 1013.6
20260902140058 26 120 0.0 1.6 0.00 0.00 0.00 71 1013.5
20260902135534 26 148 0.0 1.6 0.00 0.00 0.00 71 1013.5
20260902135015 26 133 0.0 1.6 0.00 0.00 0.00 71 1013.5
20260902134612 26 131 0.0 1.6 0.00 0.00 0.00 71 1013.6
20260902134037 25 160 0.0 1.6 0.00 0.00 0.00 71 1013.6
20260902133521 25 106 0.0 1.6 0.00 0.00 0.00 71 1013.6
20260902133100 25 106 0.0 1.6 0.00 0.00 0.00 71 1013.5
20260902132538 25 168 0.0 3.2 0.00 0.00 0.00 70 1013.5
20260902132018 25 123 0.0 3.2 0.00 0.00 0.00 70 1013.5
20260902131602 25 167 0.0 3.2 0.00 0.00 0.00 70 1013.5
20260902131044 24 159 0.0 3.2 0.00 0.00 0.00 69 1013.5
20260902130515 24 158 0.0 1.6 0.00 0.00 0.00 69 1013.5
20260902125537 24 146 0.0 3.2 0.00 0.00 0.00 69 1013.4
20260902125018 24 160 0.0 3.2 0.00 0.00 0.00 68 1013.4
20260902124600 23 164 0.0 3.2 0.00 0.00 0.00 68 1013.4
20260902124041 23 156 0.0 1.6 0.00 0.00 0.00 68 1013.3
20260902123519 23 155 0.0 1.6 0.00 0.00 0.00 68 1013.4
20260902123103 23 131 0.0 0.0 0.00 0.00 0.00 67 1013.3
20260902122542 23 152 0.0 0.0 0.00 0.00 0.00 67 1013.2
20260902122021 23 142 0.0 0.0 0.00 0.00 0.00 66 1013.2
20260902121604 23 129 0.0 0.0 0.00 0.00 0.00 67 1013.1
20260902121043 23 128 0.0 0.0 0.00 0.00 0.00 68 1013.1
20260902120523 23 128 0.0 0.0 0.00 0.00 0.00 68 1013.0
20260902120002 23 152 0.0 0.0 0.00 0.00 0.00 68 1013.1
20260902115545 23 152 0.0 0.0 0.00 0.00 0.00 69 1013.0
20260902115025 23 159 0.0 0.0 0.00 0.00 0.00 70 1013.0
20260902114504 23 154 0.0 0.0 0.00 0.00 0.00 70 1013.0
20260902114049 23 157 0.0 0.0 0.00 0.00 0.00 71 1012.9
20260902113527 24 148 0.0 0.0 0.00 0.00 0.00 71 1012.9
20260902113013 24 148 0.0 0.0 0.00 0.00 0.00 71 1012.8
20260902112551 24 144 0.0 0.0 0.00 0.00 0.00 71 1012.8
20260902112029 24 144 0.0 0.0 0.00 0.00 0.00 71 1012.7
20260902111509 24 144 0.0 0.0 0.00 0.00 0.00 71 1012.7
20260902111052 24 144 0.0 0.0 0.00 0.00 0.00 71 1012.6
20260902110533 24 144 0.0 0.0 0.00 0.00 0.00 71 1012.7
20260902110011 24 144 0.0 0.0 0.00 0.00 0.00 71 1012.7